Location: Acts Church of Fort Worth
(32.6786°N, 97.2668°W)
Time: 20:33:20
(UTC+00:00)

Cosmos 1992 Rocket - Pass Details

Date: 18 January 2026
Orbit: 754 x 761 km, 74.0° (Epoch: 10 February)

Event Time Altitude Azimuth Distance (km) Brightness Sun altitude
Rises 00:26:31 0° 181° (S) 3,190 7.5 -8.4°
Reaches altitude 10° 00:28:56 10° 176° (S) 2,268 6.6 -8.9°
Maximum altitude 00:33:52 48° 102° (ESE) 973 4.2 -9.8°
Drops below altitude 10° 00:38:50 10° 29° (NNE) 2,282 6.0 -10.8°
Enters shadow 00:40:28 - 25° (NNE) 2,903 6.6 -11.2°
